Theta_e
349 344 345 345 353 356 360 354 350 354 352 349 350 352 353 352 353 351 347 345 344 343 343 342 337 330 332 332 333 332 332 335 335 334 330 325 335 338 338 338 339 340 338 341 340 333 338 340 339
355 348 343 349 355 358 357 353 356 353 351 351 351 350 351 350 348 349 347 346 344 342 340 335 332 332 332 338 337 332 338 339 335 331 324 324 334 338 339 340 339 334 340 340 340 335 336 337 335
357 359 350 350 354 355 357 353 354 352 353 351 352 349 350 349 348 348 345 343 342 337 333 332 332 332 336 341 334 332 337 341 339 335 333 325 324 329 338 337 338 336 330 332 331 329 335 335 334
354 355 352 354 357 357 355 352 351 352 349 349 350 350 350 348 348 346 343 341 339 334 332 332 331 335 339 340 334 331 333 335 337 342 333 341 339 331 327 327 332 337 341 336 336 335 337 332 335
354 351 359 357 357 356 354 350 351 353 353 351 350 351 350 349 346 345 342 334 332 331 330 331 334 339 340 339 335 338 338 340 338 334 333 332 331 330 330 338 338 328 331 337 333 330 337 336 334
353 352 356 357 358 351 354 351 352 351 351 350 350 349 349 348 346 344 333 328 329 330 331 335 340 340 339 337 333 334 342 339 337 329 330 333 332 333 337 335 335 334 331 329 338 338 329 333 334
350 350 352 355 359 358 350 350 351 351 351 351 350 350 347 347 345 345 344 329 335 334 335 338 339 340 338 334 335 339 338 331 330 329 328 326 326 328 336 334 334 335 335 335 336 329 329 329 328
346 345 349 350 358 355 351 349 350 349 351 350 349 348 346 346 346 346 345 344 343 338 337 337 338 339 338 332 333 334 331 329 329 328 327 328 329 330 331 331 331 333 334 336 336 335 335 334 327
344 344 348 349 357 356 351 353 350 350 350 349 350 348 347 346 346 346 347 348 348 338 337 338 338 338 337 331 331 331 329 327 327 328 328 331 334 335 335 338 341 340 330 331 332 335 335 333 332
344 348 349 347 348 353 352 349 348 349 351 350 349 348 347 346 347 347 348 349 347 345 340 338 338 336 335 330 331 330 329 328 328 328 328 330 332 332 333 335 337 339 334 337 340 334 340 340 335
345 350 347 346 347 350 351 349 349 351 350 349 349 349 347 350 350 349 348 348 347 344 338 338 335 332 331 328 330 330 329 329 329 332 332 333 334 335 336 335 333 341 339 339 341 341 341 341 340
346 343 341 345 347 344 346 349 350 348 350 347 348 349 346 346 349 349 349 348 345 346 343 337 338 342 338 335 335 338 340 343 342 334 334 333 333 333 336 334 334 339 341 339 341 341 342 343 343
345 342 340 344 345 344 345 350 350 350 349 349 348 350 348 345 346 349 347 346 346 346 344 343 343 344 343 343 344 343 342 342 343 344 341 335 335 336 336 338 337 338 341 341 341 343 342 342 341
344 344 344 344 345 343 342 345 349 348 349 347 348 346 346 348 346 346 347 346 346 345 344 344 344 345 345 345 345 344 344 344 345 345 340 334 340 342 338 338 338 338 342 342 342 340 341 343 343
345 348 347 347 345 344 341 349 349 347 347 346 345 344 344 343 343 343 345 345 346 345 344 344 344 345 345 345 345 345 344 346 346 340 340 333 343 344 342 342 339 340 340 340 341 341 342 343 342
346 345 346 346 346 342 341 349 347 346 346 346 345 345 344 344 344 343 342 342 343 343 343 344 344 345 345 345 345 345 345 345 344 338 340 338 344 345 345 344 343 343 341 340 339 339 343 344 342
345 345 347 348 343 342 340 343 343 347 346 345 345 346 346 345 345 344 343 342 342 342 342 344 344 344 345 345 345 346 346 346 343 339 344 345 345 346 346 344 344 342 342 342 342 341 344 344 344
347 345 345 348 345 345 345 344 343 348 346 345 345 346 346 345 345 345 343 342 343 343 343 343 344 344 344 346 347 347 348 349 348 346 345 347 347 347 348 346 345 342 343 343 343 344 344 344 344
343 345 346 345 344 346 349 350 342 343 341 344 346 344 346 346 345 345 344 343 344 344 343 343 343 345 346 347 348 348 348 349 349 348 347 346 348 348 347 345 345 345 342 343 343 343 344 344 343
342 345 347 346 345 348 347 344 345 344 342 345 346 345 345 346 345 345 344 344 344 344 344 345 345 347 347 348 348 349 350 350 351 350 347 346 347 344 344 347 347 346 346 343 343 344 343 343 342
341 344 345 345 345 348 351 352 347 342 342 346 346 346 344 345 345 345 344 345 345 345 345 346 347 347 346 348 350 352 351 351 351 350 349 345 344 345 348 347 347 348 346 344 344 344 344 344 342
343 342 339 345 345 350 347 353 346 343 342 343 346 345 346 344 345 345 344 345 345 345 345 346 348 348 350 350 351 352 348 349 349 346 346 344 346 346 348 348 348 349 349 346 345 345 342 343 345
341 340 341 342 342 344 350 348 343 344 345 345 345 344 344 345 345 346 346 346 346 345 346 347 348 350 351 351 352 351 350 349 350 350 347 346 349 349 349 349 348 349 350 345 347 344 343 341 344
341 340 338 336 337 344 341 347 340 344 341 340 337 338 341 343 346 346 346 346 346 346 348 348 350 351 353 353 352 352 349 349 350 351 350 350 349 349 351 348 349 347 346 347 345 345 344 342 341
337 332 337 340 342 343 338 340 340 344 340 341 344 342 344 347 346 346 346 346 346 347 349 349 350 352 353 355 355 354 351 350 349 352 352 350 349 350 350 348 348 348 347 345 346 343 343 343 344
335 334 336 343 341 342 339 342 343 344 344 344 346 343 340 347 347 346 347 347 346 348 352 353 352 352 354 355 356 357 353 355 353 350 348 348 349 346 349 352 351 347 348 344 347 339 339 344 345
337 336 333 335 338 339 338 345 344 339 339 342 346 344 342 346 343 340 339 346 347 346 349 354 353 354 355 356 355 354 353 355 350 349 336 339 348 348 347 347 345 346 345 344 344 339 338 337 343
334 333 338 333 342 343 340 344 347 340 340 340 340 346 346 346 343 344 340 339 343 344 343 353 354 356 355 354 352 351 352 351 350 349 347 348 348 348 348 347 345 346 345 342 341 341 336 339 340
335 336 334 333 335 337 343 346 340 340 341 339 341 342 345 347 347 346 341 338 346 350 353 356 356 356 355 355 352 351 350 351 349 349 349 348 347 347 347 345 343 343 342 342 341 340 340 337 337
331 333 333 332 336 335 339 345 341 339 338 341 341 339 346 345 345 343 348 349 354 359 357 357 357 356 354 352 352 352 348 340 337 335 335 335 337 339 340 339 339 340 340 340 340 338 334 338 337
Wind_Speed
12 15 10 2 5 4 2 5 9 10 6 9 22 6 8 3 2 3 23 28 31 30 28 25 23 23 21 20 19 18 17 16 15 15 15 16 16 16 14 14 13 13 14 15 15 15 16 17 18
9 7 4 5 5 3 3 1 3 9 17 27 19 15 7 3 8 30 30 27 30 30 29 27 25 22 21 20 17 17 17 15 15 15 15 16 17 17 14 14 13 13 13 15 14 15 16 17 17
7 5 5 4 2 1 2 3 6 10 12 3 8 14 6 8 26 26 30 32 32 31 29 27 25 22 20 18 17 16 16 15 14 15 15 16 16 15 15 13 13 13 13 13 13 16 16 15 16
5 5 4 4 2 2 3 5 14 10 13 16 14 9 12 13 20 25 29 31 32 30 28 26 24 21 19 17 16 15 15 16 16 15 15 15 14 14 13 12 11 12 12 11 12 15 15 14 15
6 2 3 2 2 4 4 7 11 6 8 15 13 7 15 21 23 27 26 31 32 30 28 25 23 20 18 17 16 16 15 15 13 13 13 13 13 12 11 10 11 10 10 9 10 11 13 14 13
2 5 1 4 4 4 4 9 16 16 21 24 23 21 10 22 25 25 27 29 28 29 28 25 20 19 17 17 16 16 14 13 12 12 12 11 10 10 9 8 7 6 7 7 6 7 10 13 12
4 1 3 7 7 4 4 11 12 21 21 14 28 7 21 32 25 27 24 28 24 24 25 23 21 20 18 17 17 15 13 12 11 11 10 9 8 7 5 5 6 6 4 4 5 6 7 8 11
10 2 2 2 5 2 5 4 18 26 8 28 30 7 26 36 33 30 26 28 25 27 24 22 21 20 19 18 17 15 13 11 10 9 8 7 6 4 3 3 3 4 5 4 3 5 7 7 9
7 4 6 1 4 4 7 3 11 18 27 19 8 31 37 38 38 32 31 28 23 24 25 24 22 19 18 18 16 14 11 10 7 7 6 6 5 2 2 5 6 4 5 4 2 3 3 5 8
7 5 8 12 2 7 8 11 18 17 15 8 18 28 37 40 39 37 38 33 23 21 23 23 21 19 17 17 15 12 10 8 6 6 5 7 7 7 8 10 9 7 6 4 3 3 3 4 6
6 4 11 16 25 7 11 11 9 20 4 28 30 40 36 39 38 33 35 33 23 21 22 24 20 16 14 16 15 13 10 8 8 7 6 8 8 8 10 10 14 10 7 4 3 4 5 4 6
10 11 41 27 13 13 11 8 8 13 9 28 30 44 36 37 37 35 36 31 28 26 20 21 18 16 12 12 12 11 11 10 9 9 10 11 11 12 10 13 14 12 10 7 7 7 7 8 7
16 10 31 25 7 18 11 1 5 17 27 29 28 38 36 34 31 33 31 26 26 24 20 18 16 16 15 12 12 12 11 12 11 12 12 12 12 11 11 10 16 13 12 10 10 11 11 10 12
12 26 26 13 6 11 8 2 8 22 31 28 31 30 29 29 27 28 32 29 30 24 20 19 17 18 16 14 12 11 13 14 13 14 13 12 11 8 10 9 9 16 16 14 13 15 15 13 14
16 6 2 6 6 3 7 4 6 27 31 30 28 27 25 23 23 27 29 33 29 27 20 21 20 20 18 15 14 14 14 16 17 15 15 13 11 7 9 8 7 11 19 17 15 15 14 14 10
4 4 2 3 7 4 8 3 10 19 30 28 31 31 32 28 26 27 26 25 25 25 23 22 22 21 20 18 16 15 16 17 18 17 15 14 12 12 11 10 11 10 16 19 20 20 18 15 11
3 2 2 0 3 1 4 1 2 2 18 28 29 32 32 31 28 29 26 30 28 27 25 26 23 22 21 19 17 17 14 13 12 14 13 12 12 11 13 13 9 9 11 13 13 17 18 15 12
5 2 2 3 2 5 2 3 6 6 10 6 18 32 34 33 34 29 28 26 26 27 27 28 26 23 21 18 18 17 17 16 14 12 14 13 15 14 15 14 10 9 12 13 13 18 17 15 15
8 4 2 2 6 2 2 3 5 10 10 8 4 21 34 35 32 33 30 28 27 27 28 28 27 25 23 21 21 21 19 17 15 14 13 13 14 18 19 15 12 11 13 15 16 17 16 15 15
7 6 6 5 12 4 2 5 9 11 14 20 12 12 31 36 33 33 31 29 30 30 29 30 28 24 25 25 21 19 15 14 15 13 13 15 17 14 18 15 13 11 13 15 18 18 19 20 18
2 6 6 4 7 6 6 7 8 7 10 7 12 14 27 38 38 36 35 34 33 33 32 30 27 24 25 24 21 20 18 19 17 15 13 13 12 15 15 13 11 10 11 12 13 16 20 20 18
4 15 11 13 7 2 4 4 6 6 14 11 19 16 25 31 33 39 38 36 36 36 33 33 28 25 23 20 24 23 21 18 11 9 11 11 12 12 12 12 12 11 12 14 12 13 15 16 18
8 14 13 3 6 5 3 3 7 3 9 17 16 16 14 25 19 37 42 37 33 37 35 34 32 24 19 19 21 21 21 19 13 14 13 12 11 11 10 10 12 13 13 14 14 12 10 12 13
11 8 3 5 5 3 7 8 4 2 5 3 4 7 8 10 7 18 31 37 35 35 39 37 36 28 24 23 19 20 20 19 17 16 15 14 14 14 12 12 12 13 11 12 13 11 10 9 11
4 5 0 4 4 5 3 3 6 4 2 5 4 8 16 15 11 6 19 31 33 35 41 40 36 31 28 28 22 21 20 19 19 16 15 16 16 15 14 11 14 14 12 10 10 6 9 12 12
7 7 5 4 3 4 3 4 4 5 18 24 20 8 9 9 20 14 26 24 32 22 31 34 39 32 28 25 24 21 20 20 20 13 15 18 21 18 15 12 14 13 12 13 11 9 8 13 10
4 3 5 7 3 3 2 2 6 9 4 16 19 11 11 19 20 20 18 17 28 23 17 29 32 34 23 17 20 20 20 18 12 12 7 16 18 17 14 13 14 13 12 14 11 17 16 15 14
10 8 4 3 4 3 4 2 4 6 5 9 7 2 8 15 40 40 28 30 18 24 17 12 19 22 15 15 17 17 16 11 8 9 10 12 15 13 12 12 12 13 11 12 15 16 22 17 15
1 2 6 6 5 6 5 5 7 11 8 10 14 10 14 24 34 36 32 19 14 16 14 17 21 15 13 10 11 12 11 8 8 7 8 9 9 8 8 8 8 9 9 7 8 11 17 23 17
7 10 7 5 6 2 3 5 9 17 17 12 7 5 20 26 27 19 20 17 18 20 21 17 13 10 8 8 10 10 7 1 1 1 2 4 4 4 5 6 5 5 7 4 4 7 13 11 20
Wind_Direction
111 92 121 75 52 33 32 51 117 115 63 132 158 185 140 4 144 176 146 159 161 155 152 154 147 142 136 136 131 130 130 127 121 116 114 118 126 123 124 121 118 112 112 122 125 130 131 137 139
120 80 82 39 77 50 323 316 83 96 117 117 104 105 69 70 93 131 146 160 161 156 155 154 148 143 139 132 134 134 130 125 123 116 111 116 123 125 127 122 118 121 120 120 119 124 129 133 140
137 44 32 64 64 116 285 73 80 75 82 90 113 79 94 105 129 137 146 158 160 158 156 154 150 147 141 136 137 137 132 131 129 124 118 115 121 124 122 120 122 124 125 130 131 127 131 138 148
61 88 60 72 15 299 283 138 148 107 69 101 103 74 92 130 141 149 144 157 158 157 158 156 155 151 147 143 141 139 136 133 131 128 124 119 119 120 119 120 126 126 120 120 126 125 128 134 148
174 113 106 80 243 215 238 205 154 110 123 107 113 106 111 145 145 141 151 161 161 159 160 159 159 156 157 153 150 144 139 135 137 131 126 125 124 123 123 126 125 126 136 144 141 145 145 149 163
199 162 81 150 207 261 251 118 117 109 109 107 103 118 118 152 146 148 157 163 162 162 162 162 165 166 164 160 157 152 148 143 143 141 141 139 141 141 143 139 133 134 140 148 152 153 158 163 173
250 201 352 109 192 206 237 133 122 127 134 133 134 109 144 160 155 154 163 159 162 166 168 172 173 171 168 167 162 159 158 155 157 155 153 155 154 155 150 156 157 152 165 169 178 184 190 181 180
227 184 90 355 200 159 193 147 132 150 131 138 132 153 161 164 161 163 160 158 161 173 179 182 178 177 173 173 171 172 172 164 168 166 172 160 155 156 171 176 180 166 156 174 195 218 217 218 197
218 45 70 309 166 173 171 123 140 157 138 149 188 161 161 164 166 173 169 168 171 179 183 184 185 187 181 181 179 182 180 180 178 181 185 172 159 139 270 236 221 260 218 180 189 210 220 233 226
63 10 9 345 221 161 185 141 135 123 130 117 122 150 156 164 172 174 170 172 178 186 195 194 191 194 190 190 189 190 198 201 201 203 211 203 220 270 280 247 230 226 221 186 216 205 245 253 233
64 358 341 346 344 153 155 126 131 118 117 147 141 155 156 164 167 168 179 187 191 185 185 193 193 197 203 201 199 204 214 227 234 228 235 234 266 271 286 241 225 232 196 186 191 260 276 262 249
102 35 9 323 314 37 330 118 119 140 169 157 154 165 160 173 176 180 186 193 186 185 175 173 179 189 183 192 195 209 224 241 247 247 253 257 273 280 302 241 233 222 203 206 220 251 261 259 254
111 104 172 230 322 15 39 116 114 125 148 153 154 168 172 172 183 187 195 191 189 190 189 185 190 202 196 197 210 221 236 252 261 260 262 262 277 272 269 270 241 223 219 214 239 260 265 287 274
152 162 200 245 28 0 11 315 100 135 144 151 161 168 175 186 186 197 187 192 199 199 200 196 207 212 215 213 220 242 251 259 268 264 271 262 258 274 263 249 241 225 222 228 245 264 268 274 285
138 114 214 50 10 315 348 34 115 148 150 154 164 170 183 193 192 187 193 196 204 207 203 208 214 214 221 229 236 251 272 266 268 277 265 255 238 254 260 255 248 245 230 240 249 258 261 266 270
93 67 46 295 154 319 60 66 60 147 157 165 174 181 191 196 203 206 200 200 203 200 207 211 216 218 219 230 248 262 261 276 267 265 273 248 247 254 265 271 257 261 248 249 252 252 258 263 253
45 135 270 109 115 212 64 224 203 131 186 173 182 189 194 203 208 211 207 206 211 211 217 214 216 221 225 240 258 263 261 269 269 256 260 249 257 267 281 272 283 269 250 242 247 242 256 256 266
184 201 241 186 155 197 116 214 247 97 146 149 209 192 197 204 208 212 205 207 213 217 215 217 222 228 233 246 252 256 254 262 261 258 256 255 263 266 274 272 263 249 249 248 246 247 260 262 274
149 163 193 135 204 104 97 334 263 328 278 213 195 219 202 206 210 210 209 209 212 215 214 218 222 226 229 238 240 244 255 267 266 267 261 259 268 269 266 252 248 247 250 243 252 265 265 268 274
118 117 280 88 154 95 13 296 286 283 272 212 215 215 216 210 213 210 206 210 212 211 213 220 227 232 235 236 245 254 262 262 269 271 267 261 259 261 257 253 253 253 259 261 259 263 271 269 262
151 159 222 172 147 69 101 326 290 280 294 313 228 225 216 211 209 204 203 213 212 218 221 228 228 235 235 240 243 248 248 254 257 263 268 261 276 256 257 256 257 261 272 274 269 264 264 261 254
127 229 245 145 135 196 126 260 272 259 294 297 276 257 217 212 212 207 205 210 218 223 228 232 226 231 235 241 241 246 252 258 270 281 272 266 263 246 253 257 254 263 276 277 277 275 274 262 244
198 236 248 90 114 103 259 69 265 106 259 266 257 266 225 214 227 215 207 215 220 224 227 227 228 227 230 233 240 248 256 255 264 267 272 270 266 256 259 265 262 271 279 275 276 281 283 260 244
178 240 30 351 132 120 211 200 285 161 255 34 93 45 192 150 219 241 225 220 220 231 228 226 223 227 229 231 237 243 255 253 258 264 267 272 267 271 268 277 272 275 274 275 279 288 287 267 257
95 79 7 13 28 202 209 142 247 280 173 148 305 21 91 103 137 159 231 229 220 231 233 229 224 224 228 232 237 243 250 249 259 264 272 281 279 272 271 275 279 271 262 253 244 286 303 301 286
180 155 149 174 197 251 281 205 267 243 249 47 7 297 91 144 142 153 213 229 218 230 227 231 228 222 230 234 244 241 248 250 259 274 299 290 286 284 269 259 273 279 271 234 231 208 253 288 285
204 138 167 106 356 87 186 347 310 325 90 74 37 46 150 180 190 209 221 213 213 230 222 223 229 227 231 247 264 275 249 252 275 263 315 271 276 271 273 274 277 265 267 264 244 228 225 246 263
167 158 71 8 135 201 294 257 201 242 208 153 98 217 211 211 219 226 221 234 233 240 244 239 231 217 225 251 265 264 269 267 266 259 265 264 268 281 283 276 278 273 280 281 295 254 235 246 253
126 156 58 115 133 160 163 244 206 222 221 229 154 181 221 195 202 213 215 212 206 220 198 190 190 208 231 245 250 258 275 283 274 261 266 265 276 289 300 300 288 290 295 307 252 235 263 242 245
207 199 153 133 205 156 158 251 193 210 225 247 209 194 194 182 192 184 187 183 178 171 177 172 178 210 228 246 252 256 266 343 52 91 328 315 309 309 306 301 297 321 347 328 286 252 201 295 207